Regional Weather Roundup
Issued by NWS

Home | Current Version | Previous Version | Graphics & Text | Print | Product List | Glossary On
Versions: 1 2 3 4 5 6 7 8 9 10 11 12 13 14 15 16 17 18 19 20 21 22 23 24 25 26 27 28 29 30 31 32 33 34 35 36 37 38 39 40 41 42 43 44 45 46 47 48 49 50
000
ASUS43 KLMK 250502
RWRKY
KENTUCKY REGIONAL WEATHER ROUNDUP
NATIONAL WEATHER SERVICE LOUISVILLE KY
100 AM EDT SAT APR 25 2015

NOTE "FAIR" INDICATES FEW OR NO CLOUDS BELOW 12,000 FEET
WITH NO SIGNIFICANT WEATHER AND/OR OBSTRUCTIONS TO VISIBILITY.

KYZ001>023-026-027-061>063-070>075-250600-
WESTERN AND SOUTH CENTRAL KENTUCKY

CITY           SKY/WX    TMP DP  RH WIND       PRES   REMARKS
PADUCAH        CLOUDY    58  51  78 CALM      29.79R
HENDERSON      CLOUDY    55  39  54 SE3       29.81S
OWENSBORO      CLOUDY    58  39  49 SE8       29.83F
HOPKINSVILLE   CLOUDY    57  49  75 S12       29.80F
BOWLING GREEN  CLOUDY    59  39  47 S8        29.85F
GLASGOW        NOT AVBL
$$

KYZ024-025-028>034-038-045-046-053-250600-
NORTH CENTRAL KENTUCKY

CITY           SKY/WX    TMP DP  RH WIND       PRES   REMARKS
LOUISVILLE/SDF LGT RAIN  58  39  49 E5        29.86F
LOUISVILLE/LOU LGT RAIN  58  34  40 VRB5      29.88F
FORT KNOX      CLOUDY    55  40  56 E5        29.84S
$$

KYZ035>037-039>044-047>052-055>060-089>105-250600-
NORTHEAST KENTUCKY

CITY           SKY/WX    TMP DP  RH WIND       PRES   REMARKS
LEXINGTON      CLOUDY    55  32  41 E6        29.89F
COVINGTON      CLOUDY    55  32  41 E7        29.88F
FRANKFORT      CLOUDY    54  34  46 SE7       29.87F
$$

KYZ054-064>069-076>088-106>120-250600-
SOUTHEAST KENTUCKY

CITY           SKY/WX    TMP DP  RH WIND       PRES   REMARKS
JACKSON        CLOUDY    55  24  30 CALM      29.90F
LONDON         CLOUDY    59  32  36 CALM      29.90F
SOMERSET       NOT AVBL
MIDDLESBORO    CLOUDY    55  42  60 CALM      29.92F
MONTICELLO     CLOUDY    56  42  59 CALM      29.91F
$$




USA.gov is the U.S. government's official web portal to all federal, state and local government web resources and services.